TRANSIT 10 DEB, 24705

Orbit data source: Space-Track

TRANSIT 10 DEB, 24705 is space debris in LEO originally from a launch on Wed, 22 Dec 1965 UTC launched from the Air Force Western Test Range (AFWTR). Debris objects in space refer to the collection of defunct objects orbiting the Earth. Examples of debris include non-operational satellites, rocket bodies, and fragments generated from explosions, collisions, or faulty payload assembly.

Loading next visibility...
Identifier
24705, 1965-109E
Orbit
LEO
Country
Flag of USUS
Related business
Manufacturer
Unknown
Mission
Spacecraft
Bus & Motor
Unknown
Mass
Unknown
Launch date (UTC)
1965-12-22 (60 years ago)
Launch vehicle
Unknown
Launch site
Air Force Western Test Range (AFWTR)
Object type
Payload
Rocket body
Debris
Shape & HBR
Unknown shape, 0.2 m
Radar Cross Section
Medium (>0.1 m² and <1 m²)

Expand to show TLE details & history
Last TLE update: 9 hours ago

TLE from 9 hours ago
0 TRANSIT 10 DEB
1 24705U 65109E   25340.61547010  .00005539  00000-0  29448-2 0  9998
2 24705  89.0656 218.5079 0080432 328.1185  91.6451 14.11725342473663
Epoch: 2025-12-06T14:46Z
TLE epoch observation values (Epoch: 2025-12-06T14:46:16.616Z)
Latitude
60.76269°
Longitude
-77.04105°
Altitude
866.079 km
Speed
7.424 km/s
True Right ascension
14h 40m 40s
True Declination
60° 37' 05"
Sunlit
Object was in daylight at epoch
Visualization orbit readout
Latitude
Unknown
Longitude
Unknown
Altitude
Unknown
Speed
Unknown
Apparent Right ascension
Unknown
Apparent Declination
Unknown
Sunlit
N/A
Visualization observer readout
Local Sidereal Time
22:08:04
Azimuth
Unknown
Elevation
Unknown
Doppler factor
Unknown
Orbital elements
Apogee altitude
908.577 km
Perigee altitude
792.295 km
Semi-major axis
7,228.573 km
Eccentricity
0.00804
Inclination
89.0656°
RAAN
218.5079°
Arg. of periapsis
328.1185°
True anomaly
92.5661°
Mean anomaly
91.6451°
Eccentric anomaly
92.10563°
Mean motion
3.53154 °/min
Orbital period
101.94 mins
BSTAR
0.0029448
Loading maneuver chart data...
Computing Atmospheric mass density...
Loading historical data...
Loading historical data...
Loading historical data...
Loading historical data...
Loading historical data...
Loading historical data...
Loading historical data...

Documentation

Showing up to 5 results
|